| time (UTC) | temp F | wind direction | speed MPH | gust MPH | rain 1hr in | rain 24hr in | rain mn in | humidity % | barometer mb |
| 20260508114555 | 55 | 0 | 0.0 | 0.0 | 0.00 | 0.00 | 0.00 | 91 | 1012.7 |
| 20260508113106 | 56 | 0 | 0.0 | 0.0 | 0.00 | 0.00 | 0.00 | 91 | 1012.8 |
| 20260508111608 | 56 | 0 | 0.0 | 2.0 | 0.00 | 0.00 | 0.00 | 91 | 1012.8 |
| 20260508110059 | 55 | 0 | 0.0 | 3.0 | 0.00 | 0.00 | 0.00 | 91 | 1012.6 |
| 20260508104556 | 55 | 0 | 0.0 | 2.0 | 0.00 | 0.00 | 0.00 | 91 | 1012.7 |
| 20260508103058 | 55 | 0 | 0.0 | 0.0 | 0.00 | 0.00 | 0.00 | 90 | 1012.8 |
| 20260508101557 | 56 | 0 | 0.0 | 0.0 | 0.00 | 0.00 | 0.00 | 90 | 1012.8 |
| 20260508100053 | 57 | 0 | 0.0 | 0.0 | 0.00 | 0.00 | 0.00 | 89 | 1012.8 |
| 20260508094549 | 57 | 0 | 0.0 | 2.0 | 0.00 | 0.00 | 0.00 | 88 | 1012.4 |
| 20260508093106 | 57 | 0 | 0.0 | 2.0 | 0.00 | 0.00 | 0.00 | 89 | 1012.3 |
| 20260508091609 | 57 | 0 | 0.0 | 2.0 | 0.00 | 0.00 | 0.00 | 89 | 1012.1 |
| 20260508090110 | 58 | 0 | 0.0 | 2.0 | 0.00 | 0.00 | 0.00 | 88 | 1012.6 |
| 20260508084555 | 58 | 0 | 0.0 | 2.0 | 0.00 | 0.00 | 0.00 | 88 | 1012.4 |
| 20260508083055 | 58 | 0 | 0.0 | 2.0 | 0.00 | 0.00 | 0.00 | 87 | 1012.4 |
| 20260508081603 | 59 | 0 | 0.0 | 2.0 | 0.00 | 0.00 | 0.00 | 86 | 1012.8 |
| 20260508080048 | 59 | 0 | 0.0 | 0.0 | 0.00 | 0.00 | 0.00 | 87 | 1012.9 |
| 20260508074556 | 59 | 0 | 0.0 | 1.0 | 0.00 | 0.00 | 0.00 | 89 | 1013.5 |
| 20260508073104 | 58 | 107 | 0.0 | 0.0 | 0.00 | 0.00 | 0.00 | 91 | 1013.7 |
| 20260508071604 | 57 | 0 | 0.0 | 0.0 | 0.00 | 0.00 | 0.00 | 91 | 1013.5 |
| 20260508070104 | 57 | 0 | 0.0 | 0.0 | 0.00 | 0.00 | 0.00 | 91 | 1013.3 |
| 20260508064550 | 57 | 0 | 0.0 | 0.0 | 0.00 | 0.00 | 0.00 | 91 | 1013.3 |
| 20260508063053 | 57 | 0 | 0.0 | 0.0 | 0.00 | 0.00 | 0.00 | 91 | 1013.4 |
| 20260508061553 | 58 | 0 | 0.0 | 0.0 | 0.00 | 0.00 | 0.00 | 91 | 1013.7 |
| 20260508060053 | 57 | 0 | 0.0 | 0.0 | 0.00 | 0.00 | 0.00 | 91 | 1013.8 |
| 20260508054553 | 56 | 0 | 0.0 | 0.0 | 0.00 | 0.00 | 0.00 | 90 | 1014.0 |
| 20260508053114 | 57 | 0 | 0.0 | 0.0 | 0.00 | 0.00 | 0.00 | 90 | 1014.0 |
| 20260508051546 | 57 | 0 | 0.0 | 0.0 | 0.00 | 0.00 | 0.00 | 89 | 1014.2 |
| 20260508050055 | 57 | 0 | 0.0 | 0.0 | 0.00 | 0.00 | 0.00 | 89 | 1014.1 |
| 20260508044554 | 57 | 0 | 0.0 | 0.0 | 0.00 | 0.00 | 0.00 | 88 | 1014.1 |
| 20260508043054 | 58 | 0 | 0.0 | 0.0 | 0.00 | 0.00 | 0.00 | 87 | 1014.1 |
| 20260508041614 | 58 | 0 | 0.0 | 0.0 | 0.00 | 0.00 | 0.00 | 85 | 1014.0 |
| 20260508040108 | 59 | 0 | 0.0 | 0.0 | 0.00 | 0.00 | 0.00 | 84 | 1014.0 |
| 20260508034553 | 59 | 0 | 0.0 | 0.0 | 0.00 | 0.00 | 0.00 | 83 | 1013.9 |
| 20260508033052 | 59 | 0 | 0.0 | 0.0 | 0.00 | 0.00 | 0.00 | 82 | 1013.8 |
| 20260508031551 | 60 | 0 | 0.0 | 0.0 | 0.00 | 0.00 | 0.00 | 80 | 1013.6 |
| 20260508030048 | 61 | 0 | 0.0 | 2.0 | 0.00 | 0.00 | 0.00 | 75 | 1013.3 |
| 20260508024600 | 62 | 107 | 1.0 | 4.0 | 0.00 | 0.00 | 0.00 | 74 | 1013.1 |
| 20260508023051 | 62 | 0 | 0.0 | 3.0 | 0.00 | 0.00 | 0.00 | 74 | 1013.1 |
| 20260508021552 | 62 | 123 | 0.0 | 2.0 | 0.00 | 0.00 | 0.00 | 74 | 1013.1 |
| 20260508020053 | 62 | 123 | 0.0 | 0.0 | 0.00 | 0.00 | 0.00 | 76 | 1013.2 |
| 20260508014548 | 61 | 0 | 0.0 | 0.0 | 0.00 | 0.00 | 0.00 | 78 | 1013.2 |
| 20260508013054 | 62 | 0 | 0.0 | 0.0 | 0.00 | 0.00 | 0.00 | 78 | 1013.2 |
| 20260508011558 | 62 | 0 | 0.0 | 0.0 | 0.00 | 0.00 | 0.00 | 77 | 1013.3 |
| 20260508010056 | 64 | 0 | 0.0 | 2.0 | 0.00 | 0.00 | 0.00 | 74 | 1013.2 |
| 20260508004556 | 65 | 0 | 0.0 | 3.0 | 0.00 | 0.00 | 0.00 | 71 | 1013.2 |
| 20260508003105 | 65 | 0 | 0.0 | 2.0 | 0.00 | 0.00 | 0.00 | 70 | 1013.3 |
| 20260508001554 | 65 | 123 | 0.0 | 2.0 | 0.00 | 0.00 | 0.00 | 68 | 1013.4 |
| 20260508000057 | 65 | 0 | 0.0 | 2.0 | 0.00 | 0.00 | 0.00 | 68 | 1013.5 |
| 20260507234550 | 65 | 0 | 0.0 | 2.0 | 0.00 | 0.01 | 0.00 | 67 | 1013.7 |
| 20260507233102 | 66 | 0 | 0.0 | 2.0 | 0.00 | 0.01 | 0.00 | 68 | 1013.8 |
| 20260507231555 | 66 | 0 | 0.0 | 1.0 | 0.00 | 0.01 | 0.00 | 65 | 1013.5 |
| 20260507230054 | 66 | 0 | 0.0 | 1.0 | 0.00 | 0.01 | 0.00 | 63 | 1013.6 |
| 20260507224600 | 67 | 0 | 0.0 | 1.0 | 0.00 | 0.01 | 0.00 | 63 | 1013.8 |
| 20260507223053 | 66 | 0 | 0.0 | 1.0 | 0.00 | 0.01 | 0.00 | 65 | 1013.9 |
| 20260507221549 | 67 | 0 | 0.0 | 2.0 | 0.00 | 0.01 | 0.00 | 64 | 1014.0 |
| 20260507220047 | 66 | 165 | 0.0 | 4.0 | 0.00 | 0.01 | 0.00 | 64 | 1014.3 |
| 20260507214558 | 67 | 145 | 0.0 | 6.0 | 0.00 | 0.01 | 0.00 | 62 | 1014.1 |
| 20260507213103 | 67 | 92 | 0.0 | 5.0 | 0.00 | 0.01 | 0.00 | 63 | 1014.3 |
| 20260507211552 | 67 | 155 | 1.0 | 5.0 | 0.00 | 0.01 | 0.00 | 63 | 1014.4 |
| 20260507204557 | 67 | 145 | 1.0 | 7.0 | 0.00 | 0.01 | 0.00 | 61 | 1015.2 |
| 20260507203051 | 69 | 158 | 2.0 | 6.0 | 0.00 | 0.01 | 0.00 | 57 | 1014.9 |
| 20260507201556 | 69 | 105 | 1.0 | 5.0 | 0.00 | 0.01 | 0.00 | 56 | 1014.9 |
| 20260507200051 | 69 | 130 | 2.0 | 7.0 | 0.00 | 0.01 | 0.00 | 57 | 1014.7 |
| 20260507194618 | 69 | 132 | 1.0 | 4.0 | 0.00 | 0.01 | 0.00 | 56 | 1015.0 |
| 20260507193055 | 69 | 155 | 1.0 | 8.0 | 0.00 | 0.01 | 0.00 | 58 | 1015.1 |
| 20260507191554 | 70 | 112 | 1.0 | 7.0 | 0.00 | 0.01 | 0.00 | 57 | 1015.5 |
| 20260507190054 | 70 | 80 | 3.0 | 8.0 | 0.00 | 0.01 | 0.00 | 57 | 1016.1 |
| 20260507184552 | 69 | 335 | 0.0 | 8.0 | 0.00 | 0.01 | 0.00 | 55 | 1016.4 |
| 20260507183059 | 69 | 106 | 1.0 | 8.0 | 0.00 | 0.01 | 0.00 | 56 | 1016.2 |
| 20260507181556 | 68 | 0 | 2.0 | 9.0 | 0.00 | 0.01 | 0.00 | 57 | 1016.0 |
| 20260507180050 | 67 | 304 | 2.0 | 6.0 | 0.00 | 0.01 | 0.00 | 57 | 1016.2 |
| 20260507174600 | 66 | 360 | 5.0 | 9.0 | 0.00 | 0.01 | 0.00 | 59 | 1016.1 |
| 20260507173122 | 65 | 346 | 3.0 | 12.0 | 0.00 | 0.01 | 0.00 | 60 | 1016.5 |
| 20260507171557 | 65 | 344 | 6.0 | 11.0 | 0.00 | 0.01 | 0.00 | 58 | 1016.6 |
| 20260507170110 | 64 | 321 | 3.0 | 10.0 | 0.00 | 0.01 | 0.00 | 64 | 1016.8 |
| 20260507164557 | 65 | 164 | 2.0 | 10.0 | 0.00 | 0.01 | 0.00 | 64 | 1017.3 |
| 20260507163052 | 65 | 138 | 1.0 | 6.0 | 0.00 | 0.01 | 0.00 | 65 | 1017.5 |
| 20260507161602 | 64 | 19 | 4.0 | 12.0 | 0.00 | 0.01 | 0.00 | 68 | 1017.7 |
| 20260507160047 | 63 | 360 | 3.0 | 8.0 | 0.00 | 0.01 | 0.00 | 68 | 1017.6 |
| 20260507154551 | 63 | 336 | 0.0 | 10.0 | 0.00 | 0.01 | 0.00 | 72 | 1017.6 |
| 20260507153056 | 62 | 334 | 4.0 | 10.0 | 0.00 | 0.01 | 0.00 | 71 | 1017.6 |
| 20260507151558 | 61 | 355 | 4.0 | 9.0 | 0.00 | 0.01 | 0.00 | 73 | 1017.7 |
| 20260507150059 | 59 | 344 | 3.0 | 8.0 | 0.00 | 0.01 | 0.00 | 76 | 1017.8 |
| 20260507144602 | 59 | 328 | 3.0 | 9.0 | 0.00 | 0.02 | 0.00 | 77 | 1018.0 |
| 20260507143108 | 58 | 340 | 3.0 | 8.0 | 0.00 | 0.02 | 0.00 | 80 | 1018.1 |
| 20260507141633 | 57 | 360 | 4.0 | 9.0 | 0.00 | 0.02 | 0.00 | 83 | 1018.3 |
| 20260507140058 | 56 | 22 | 3.0 | 8.0 | 0.00 | 0.02 | 0.00 | 86 | 1018.1 |
| 20260507134603 | 55 | 31 | 2.0 | 5.0 | 0.00 | 0.02 | 0.00 | 89 | 1018.1 |
| 20260507133104 | 54 | 0 | 1.0 | 4.0 | 0.00 | 0.02 | 0.00 | 91 | 1018.1 |
| 20260507131556 | 53 | 339 | 2.0 | 3.0 | 0.00 | 0.02 | 0.00 | 92 | 1018.2 |
| 20260507130058 | 53 | 339 | 1.0 | 4.0 | 0.00 | 0.02 | 0.00 | 92 | 1018.2 |
| 20260507124553 | 52 | 0 | 0.0 | 2.0 | 0.00 | 0.02 | 0.00 | 92 | 1018.0 |
| 20260507123052 | 51 | 0 | 0.0 | 0.0 | 0.00 | 0.02 | 0.00 | 92 | 1018.0 |
| 20260507121554 | 51 | 0 | 0.0 | 0.0 | 0.00 | 0.02 | 0.00 | 92 | 1018.5 |
| 20260507120100 | 50 | 0 | 0.0 | 0.0 | 0.00 | 0.02 | 0.00 | 92 | 1018.4 |